Find Starlink 38203

NORAD ID: 100535 Int'l Des: 2026-200 Owner: SPXS Country: US Constellation: starlink operational

当前视图

正在加载3D地球...

About Starlink 38203

Starlink 38203 (NORAD 100535) is a starlink constellation satellite launched Sep 2, 2026 by SPXS of US. with a mass of 575.00 kg.

即将过境

Passes for default location (London). Set your location on the main map for personalized predictions.

高度历史

Loading altitude history...

两行轨道根数

1 A0535U 26200B 26264.14705211 .00029331 00000-0 17629-3 0 9990
2 A0535 69.9993 133.2019 0003454 269.9454 90.1350 15.77611760 2993
Epoch: Sep 21, 2026 • Age: 13 hours

当前状态

高度 357.6 km
远地点 / 近地点 N/A
速度 7.69 km/s
星下点 -60.20°S, 162.28°W
发射日期 Sep 2, 2026
运行时间 19 days
类型 internet

技术详情

分类 Payload
质量 575.00 kg
干质量 530.00 kg
长度 0.30 m
跨度 29.00 m
形状 ? Box + pan
制造商 SPXS
平台类型 Starlink V2MO
阶段状态 In Orbit
所有者/国家 SPXS/US

Most Searched